Tracking 19193 objects as of 24-Jun-2018
HD Live streaming from Space Station
objects crossing your sky now

FENGYUN 1C DEB

Track FENGYUN 1C DEB now!
10-day predictions


NORAD ID: 32154
Int'l Code: 1999-025CSY
Perigee: 534.0 km
Apogee: 603.8 km
Inclination: 99.0 °
Period: 95.9 minutes
Semi major axis: 6939 km
RCS: 0.0067 m2 (small)
Launch date: May 10, 1999
Source: People's Republic of China (PRC)
Launch site: Taiyaun Space Center, China (TSC)

Note: This is SATELLITE DEBRIS
aabbcc
Your satellite tracking list
Your tracking list is empty




NASA's NSSDC Master Catalog

Two Line Element Set (TLE):
1 32154U 99025CSY 18174.09061861 +.00005588 +00000-0 +42493-3 0  9993
2 32154 099.0263 226.0865 0050284 331.8869 027.9637 15.01655929269174
Source of the keplerian elements: AFSPC